Satellite-Ground Cal/Val Site Overpasses Predictions

Prediction of Satellite NPP Overpassing Cal/Val Site: Antarctic Dome C

Ground Cal/Val Site Location: Latitude: -75.10, Longitude: 123.35; Satellite-Ground Site NADIR distance within 100 km.

Table of predicted overpasses for the next 14.0 days since TLE Epoch: 4/2/2013
Interval Starting Time Ending Time Minimum Distance Time Minimum Distance (km)
1 04/03/2013 14:47:53 04/03/2013 14:48:22 04/03/2013 14:48:08 10.24
2 04/05/2013 07:30:45 04/05/2013 07:31:14 04/05/2013 07:30:59 2.99
3 04/08/2013 14:54:14 04/08/2013 14:54:43 04/08/2013 14:54:28 26.91
4 04/09/2013 14:35:32 04/09/2013 14:35:49 04/09/2013 14:35:41 80.46
5 04/10/2013 07:37:06 04/10/2013 07:37:33 04/10/2013 07:37:19 37.15
6 04/11/2013 07:18:21 04/11/2013 07:18:41 04/11/2013 07:18:31 72.68
7 04/13/2013 15:00:38 04/13/2013 15:01:00 04/13/2013 15:00:49 63.99
8 04/14/2013 14:41:47 04/14/2013 14:42:13 04/14/2013 14:42:00 45.35


NCC Satellite Cal/Val Overpasses Prediction Service
